STARLINK-5167, 54058

Orbit data source: Space-Track

STARLINK-5167, 54058 is a payload satellite owned by SpaceX/Seattle (US) in LEO that was launched on Thu, 20 Oct 2022 UTC via an FALCON 9 launch vehicle from the Air Force Eastern Test Range (AFETR). Payload-class satellites include a variety of spacecraft equipped with specific instruments for various scientific and technological missions. These include communications satellites like Starlink; space stations such as the ISS; scientific satellites like the Hubble; Earth observation satellites from companies like Planet Labs, Umbra, and HawkEye 360; GPS; miniature CubeSats for education and research; and military/defense satellites.

Loading next visibility...
Identifier
54058, 2022-136H
Orbit
LEO
Country
Flag of USUS
Related business
Manufacturer
SpaceX/Seattle
Mission
Operational Commercial Communications
Bus & Motor
STARLINK, Unknown motor
Mass
305 kg wet, ~290 kg dry
Launch date (UTC)
2022-10-20 (3 years ago)
Launch vehicle
FALCON 9
Launch site
Air Force Eastern Test Range (AFETR)
Object type
Payload
Rocket body
Debris
Shape & HBR
Box + 1 Pan, 10.1 m
Radar Cross Section
13.562 m², Large (>1 m²)

Expand to show TLE details & history
Last TLE update: 7 hours ago

TLE from 7 hours ago
0 STARLINK-5167
1 54058U 22136H   25303.72544801  .00000989  00000-0  80240-4 0  9994
2 54058  53.2174 207.5637 0001516  84.1798 275.9367 15.08839170167225
Epoch: 2025-10-30T17:24Z
TLE epoch observation values (Epoch: 2025-10-30T17:24:38.708Z)
Latitude
Longitude
-92.87769°
Altitude
540.535 km
Speed
7.593 km/s
True Right ascension
13h 50m 15s
True Declination
0° 00' 00"
Sunlit
Object was in daylight at epoch
Visualization orbit readout
Latitude
Unknown
Longitude
Unknown
Altitude
Unknown
Speed
Unknown
Apparent Right ascension
Unknown
Apparent Declination
Unknown
Sunlit
N/A
Visualization observer readout
Local Sidereal Time
20:14:38
Azimuth
Unknown
Elevation
Unknown
Doppler factor
Unknown
Orbital elements
Apogee altitude
541.04 km
Perigee altitude
538.942 km
Semi-major axis
6,918.128 km
Eccentricity
0.00015
Inclination
53.2174°
RAAN
207.5637°
Arg. of periapsis
84.1798°
True anomaly
275.91942°
Mean anomaly
275.9367°
Eccentric anomaly
275.92806°
Mean motion
3.7719 °/min
Orbital period
95.44 mins
BSTAR
0.00008024
Loading maneuver chart data...
Computing Atmospheric mass density...
Loading historical data...
Loading historical data...
Loading historical data...
Loading historical data...
Loading historical data...
Loading historical data...
Loading historical data...

Documentation

Showing up to 5 results
|